Regional Weather Roundup
Issued by NWS Bismarck, ND

Home | Current Version | Previous Version | Text Only | Print | Product List | Glossary On
Versions: 1 2 3 4 5 6 7 8 9 10 11 12 13 14 15 16 17 18 19 20 21 22 23 24 25 26 27 28 29 30 31 32 33 34 35 36 37 38 39 40 41 42 43 44 45 46 47 48 49 50
000
ASUS43 KBIS 051310
RWRBIS

NWR BROADCAST TEXT
NATIONAL WEATHER SERVICE BISMARCK ND
700 AM CST FRI FEB 05 2016

NOTE: "FAIR" INDICATES FEW OR NO CLOUDS BELOW 12,000 FEET WITH NO
SIGNIFICANT WEATHER AND/OR OBSTRUCTIONS TO VISIBILITY.


CITY           SKY/WX    TMP DP  RH WIND       PRES   REMARKS
WILLISTON      CLEAR     16  12  84 CALM      30.18R
MINOT          PTCLDY    22  14  71 W12       30.13R WCI  10
MINOT AFB      MOCLDY    20  17  87 NW9       30.13R WCI   9
BISMARCK       CLOUDY    32  27  81 NW7       30.12R
DICKINSON      CLOUDY    22  20  92 NW9       30.13R WCI  12
GARRISON         N/A     19  16  88 NW9       30.13R WCI   8
HETTINGER ARPT CLOUDY    29  25  85 NW14      30.13R WCI  18
JAMESTOWN      CLOUDY    25  21  85 W3        30.07R
BEACH          CLOUDY    21  21 100 W6        30.21R WCI  14
CARRINGTON     FAIR      23  23 100 NW13      30.10R WCI  11
HAZEN            N/A     21  18  86 W7          N/A  WCI  13
LINTON         MIX PCPN  28  27  93 CALM      30.12R
MANDAN         CLOUDY    28  27  93 NW9       30.11S WCI  20
OAKES          LGT SNOW  21  21 100 SW10      30.11R WCI  10
RUGBY          FAIR      12  10  92 W8        30.11R WCI   1
STANLEY        CLOUDY    16  16 100 NW10      30.14R WCI   3
TIOGA          CLOUDY    14  14 100 W6        30.19R WCI   5
WATFORD CITY   FAIR      10   9  92 SW6       30.18R WCI   1
$$

CITY           SKY/WX    TMP DP  RH WIND       PRES   REMARKS
GRAND FORKS    CLOUDY    17  12  80 S5        30.12S WCI  10
GRAND FORKS AF PTCLDY    16  12  87 CALM      30.11S
DEVILS LAKE    CLOUDY    16  14  92 NW5       30.09R WCI   9
FARGO          CLOUDY    19  13  77 S15       30.13F WCI   5
CAVALIER       FAIR      14  10  85 CALM      30.14S
GRAFTON        FAIR      12  10  92 E5        30.15S WCI   4
LANGDON        FAIR      10   7  85 N7        30.08S WCI   0
ROLLA          CLOUDY    18  16  93 NW8       30.09S WCI   7
WALHALLA       FAIR       9   9 100 W3        30.14S
$$

CITY           SKY/WX    TMP DP  RH WIND       PRES   REMARKS
ABERDEEN       CLOUDY    23  18  81 S7        30.13R WCI  15
MOBRIDGE       CLOUDY    29  24  82 CALM      30.07R
BUFFALO          N/A     30  24  78 NW29G37   30.08R WCI  15
RAPID CITY     PTCLDY    30  26  85 N22G28    30.14R WCI  17
GLASGOW        FOG       14  12  92 NW3       30.18R VSB 1/4
SIDNEY         PTCLDY    16  12  86 CALM      30.19S
WOLF POINT     PTCLDY    13  10  88 SW7       30.20S WCI   3
GLENDIVE       CLEAR     19  18  93 W10       30.21R WCI   8
MILES CITY     CLEAR     23  20  88 W12       30.22R WCI  12
BAKER          CLOUDY    27  23  85 W12       30.19R WCI  17
$$

CITY           SKY/WX    TMP DP  RH WIND       PRES   REMARKS
BILLINGS       CLEAR     32  17  54 W17       30.25R
GREAT FALLS    CLOUDY    29  19  66 SW16      30.21S WCI  17
REGINA         MOCLDY     9   7  92 S6        30.10S WCI  -1
ESTEVAN        PTCLDY    12  10  92 W7        30.13S WCI   2
$$




USA.gov is the U.S. government's official web portal to all federal, state and local government web resources and services.